�������l�o���
Date,Time,MP-1(��Sv/h),MP-2(��Sv/h),MP-3(��Sv/h),MP-4(��Sv/h),MP-5(��Sv/h),MP-6(��Sv/h),MP-7(��Sv/h),MP-8(��Sv/h),����,����(m/s),���J
2021/02/26,00:00,0.656,0.961,0.604,1.207,0.851,0.378,0.668,0.626,��쐼,5.9,��
2021/02/26,00:10,0.657,0.963,0.605,1.204,0.851,0.377,0.666,0.626,��쐼,5.9,��
2021/02/26,00:20,0.658,0.961,0.604,1.206,0.852,0.377,0.666,0.625,��쐼,7.1,��
2021/02/26,00:30,0.658,0.961,0.604,1.206,0.854,0.378,0.667,0.626,��쐼,6.0,��
2021/02/26,00:40,0.658,0.961,0.606,1.204,0.851,0.377,0.667,0.626,�쐼,6.4,��
2021/02/26,00:50,0.657,0.961,0.605,1.205,0.852,0.378,0.668,0.626,��쐼,6.1,��
2021/02/26,01:00,0.659,0.960,0.604,1.205,0.851,0.378,0.668,0.626,�쐼,6.1,��
2021/02/26,01:10,0.658,0.962,0.605,1.207,0.850,0.378,0.668,0.624,�쐼,7.0,��
2021/02/26,01:20,0.659,0.961,0.605,1.206,0.852,0.379,0.669,0.626,��쐼,7.4,��
2021/02/26,01:30,0.659,0.961,0.604,1.205,0.852,0.379,0.668,0.625,��쐼,7.1,��
2021/02/26,01:40,0.659,0.962,0.605,1.203,0.852,0.378,0.667,0.625,�쐼,6.4,��
2021/02/26,01:50,0.657,0.962,0.606,1.206,0.854,0.378,0.670,0.624,�쐼,6.2,��
2021/02/26,02:00,0.659,0.959,0.605,1.206,0.853,0.379,0.669,0.626,�쐼,5.7,��
2021/02/26,02:10,0.661,0.963,0.606,1.206,0.851,0.379,0.668,0.625,�쐼,5.7,��
2021/02/26,02:20,0.659,0.961,0.604,1.205,0.853,0.377,0.669,0.626,�쐼,5.2,��
2021/02/26,02:30,0.655,0.960,0.605,1.207,0.852,0.379,0.668,0.624,���쐼,4.4,��
2021/02/26,02:40,0.658,0.960,0.603,1.206,0.852,0.379,0.668,0.626,���쐼,3.4,��
2021/02/26,02:50,0.659,0.962,0.605,1.205,0.853,0.378,0.666,0.625,���k��,2.6,��
2021/02/26,03:00,0.658,0.960,0.603,1.206,0.852,0.378,0.668,0.626,�k��,3.5,��
2021/02/26,03:10,0.657,0.961,0.606,1.206,0.851,0.378,0.669,0.627,�k��,4.1,��
2021/02/26,03:20,0.659,0.961,0.605,1.204,0.852,0.378,0.669,0.625,�k��,4.0,��
2021/02/26,03:30,0.660,0.962,0.604,1.205,0.852,0.379,0.667,0.625,�k��,2.9,��
2021/02/26,03:40,0.657,0.960,0.606,1.206,0.850,0.379,0.668,0.627,�k��,2.3,��
2021/02/26,03:50,0.658,0.961,0.606,1.208,0.851,0.380,0.668,0.625,�k��,2.0,��
2021/02/26,04:00,0.659,0.959,0.604,1.206,0.853,0.378,0.668,0.625,���k��,2.3,��
2021/02/26,04:10,0.660,0.963,0.604,1.205,0.853,0.377,0.667,0.625,���k��,1.9,��
2021/02/26,04:20,0.659,0.959,0.604,1.206,0.853,0.377,0.668,0.626,��,1.5,��
2021/02/26,04:30,0.658,0.959,0.605,1.206,0.853,0.378,0.668,0.625,���k��,2.5,��
2021/02/26,04:40,0.659,0.961,0.603,1.206,0.851,0.378,0.670,0.626,��,3.5,��
2021/02/26,04:50,0.658,0.961,0.605,1.204,0.852,0.377,0.669,0.626,���쐼,4.6,��
2021/02/26,05:00,0.659,0.959,0.605,1.206,0.853,0.378,0.669,0.625,���쐼,4.6,��
2021/02/26,05:10,0.659,0.962,0.605,1.207,0.852,0.379,0.668,0.626,���쐼,3.6,��
2021/02/26,05:20,0.659,0.961,0.604,1.207,0.852,0.378,0.669,0.626,���쐼,4.4,��
2021/02/26,05:30,0.658,0.963,0.605,1.208,0.851,0.378,0.667,0.626,���k��,6.2,��
2021/02/26,05:40,0.661,0.962,0.606,1.206,0.850,0.378,0.669,0.625,���k��,6.4,��
2021/02/26,05:50,0.658,0.961,0.606,1.206,0.851,0.378,0.670,0.626,��,6.0,��
2021/02/26,06:00,0.659,0.959,0.605,1.208,0.853,0.378,0.670,0.626,���쐼,5.7,��
2021/02/26,06:10,0.656,0.960,0.605,1.207,0.853,0.378,0.667,0.626,��,5.9,��
2021/02/26,06:20,0.659,0.961,0.606,1.207,0.850,0.379,0.668,0.627,��,7.7,��
2021/02/26,06:30,0.660,0.960,0.605,1.205,0.852,0.378,0.668,0.626,��,7.1,��
2021/02/26,06:40,0.659,0.962,0.605,1.206,0.853,0.379,0.670,0.625,��,8.0,��
2021/02/26,06:50,0.659,0.960,0.605,1.207,0.852,0.378,0.670,0.627,���쐼,6.6,��
2021/02/26,07:00,0.658,0.961,0.605,1.208,0.852,0.379,0.669,0.627,��,6.2,��
2021/02/26,07:10,0.659,0.963,0.605,1.206,0.853,0.378,0.669,0.626,��,6.2,��
2021/02/26,07:20,0.660,0.960,0.605,1.208,0.853,0.379,0.669,0.625,��,6.9,��
2021/02/26,07:30,0.660,0.964,0.608,1.206,0.850,0.378,0.670,0.627,��,8.8,��
2021/02/26,07:40,0.659,0.963,0.605,1.209,0.853,0.377,0.670,0.627,��,7.1,��
2021/02/26,07:50,0.660,0.962,0.606,1.206,0.853,0.379,0.671,0.627,���k��,7.3,��
2021/02/26,08:00,0.658,0.963,0.606,1.208,0.853,0.378,0.670,0.625,���k��,4.7,��
2021/02/26,08:10,0.658,0.962,0.606,1.207,0.851,0.378,0.669,0.626,���k��,7.0,��
2021/02/26,08:20,0.658,0.963,0.606,1.208,0.853,0.379,0.668,0.626,���k��,9.0,��
2021/02/26,08:30,0.658,0.960,0.606,1.207,0.852,0.379,0.668,0.624,���k��,8.1,��
2021/02/26,08:40,0.659,0.961,0.606,1.208,0.854,0.378,0.670,0.626,���k��,7.6,��
2021/02/26,08:50,0.659,0.960,0.606,1.208,0.854,0.379,0.669,0.627,���k��,6.6,��
2021/02/26,09:00,0.660,0.961,0.605,1.209,0.852,0.378,0.668,0.626,���k��,6.6,��
2021/02/26,09:10,0.659,0.961,0.607,1.206,0.853,0.378,0.670,0.626,�k�k��,4.7,��
2021/02/26,09:20,0.659,0.961,0.605,1.208,0.852,0.379,0.669,0.627,�k,3.2,��
2021/02/26,09:30,0.659,0.960,0.606,1.206,0.853,0.377,0.671,0.626,�k�k��,3.0,��
2021/02/26,09:40,0.659,0.960,0.607,1.207,0.853,0.378,0.669,0.627,�k�k��,3.3,��
2021/02/26,09:50,0.659,0.962,0.608,1.210,0.854,0.379,0.670,0.627,�k��,4.4,��
2021/02/26,10:00,0.658,0.961,0.609,1.208,0.852,0.378,0.670,0.628,�k��,4.3,��
2021/02/26,10:10,0.660,0.962,0.607,1.208,0.853,0.379,0.668,0.626,�k��,4.6,��
2021/02/26,10:20,0.659,0.962,0.607,1.206,0.852,0.380,0.670,0.626,���k��,4.7,��
2021/02/26,10:30,0.661,0.963,0.607,1.208,0.854,0.379,0.668,0.628,���k��,6.1,��
2021/02/26,10:40,0.658,0.961,0.606,1.207,0.855,0.379,0.668,0.626,���k��,6.4,��
2021/02/26,10:50,0.658,0.965,0.605,1.210,0.853,0.379,0.668,0.628,���k��,6.5,��
2021/02/26,11:00,0.658,0.963,0.605,1.207,0.853,0.377,0.667,0.627,���k��,7.6,��
2021/02/26,11:10,0.659,0.961,0.606,1.206,0.853,0.375,0.668,0.626,���k��,6.7,��
2021/02/26,11:20,0.659,0.965,0.607,1.211,0.855,0.375,0.669,0.627,���k��,6.7,��
2021/02/26,11:30,0.659,0.962,0.606,1.208,0.852,0.373,0.667,0.628,���k��,7.7,��
2021/02/26,11:40,0.659,0.960,0.606,1.212,0.854,0.378,0.666,0.626,���k��,8.6,��
2021/02/26,11:50,0.660,0.962,0.607,1.206,0.852,0.379,0.668,0.626,���k��,7.1,��
2021/02/26,12:00,0.660,0.963,0.607,1.208,0.853,0.377,0.669,0.628,�k��,8.1,��
2021/02/26,12:10,0.658,0.963,0.606,1.212,0.852,0.379,0.668,0.627,���k��,6.5,��
2021/02/26,12:20,0.658,0.965,0.606,1.210,0.855,0.379,0.668,0.627,���k��,7.1,��
2021/02/26,12:30,0.659,0.966,0.607,1.207,0.855,0.378,0.668,0.627,�k��,5.6,��
2021/02/26,12:40,0.660,0.965,0.606,1.209,0.855,0.379,0.670,0.625,���k��,6.3,��
2021/02/26,12:50,0.659,0.962,0.607,1.207,0.855,0.379,0.669,0.627,���k��,5.6,��
2021/02/26,13:00,0.658,0.964,0.607,1.208,0.857,0.380,0.669,0.627,���k��,8.1,��
2021/02/26,13:10,0.660,0.964,0.605,1.209,0.856,0.379,0.668,0.628,��,7.4,��
2021/02/26,13:20,0.660,0.963,0.606,1.209,0.855,0.379,0.668,0.627,���k��,7.8,��
2021/02/26,13:30,0.659,0.962,0.606,1.210,0.855,0.378,0.670,0.628,���k��,8.5,��
2021/02/26,13:40,0.658,0.960,0.604,1.209,0.854,0.378,0.668,0.627,�k��,8.8,��
2021/02/26,13:50,0.657,0.964,0.603,1.211,0.856,0.379,0.670,0.627,���k��,7.8,��
2021/02/26,14:00,0.657,0.962,0.608,1.209,0.856,0.379,0.668,0.626,�k��,7.1,��
2021/02/26,14:10,0.659,0.962,0.608,1.210,0.856,0.379,0.667,0.628,�k��,9.5,��
2021/02/26,14:20,0.660,0.961,0.606,1.210,0.855,0.377,0.669,0.627,�k��,8.1,��
2021/02/26,14:30,0.658,0.963,0.606,1.212,0.854,0.378,0.669,0.628,�k��,9.5,��
2021/02/26,14:40,0.659,0.962,0.605,1.212,0.853,0.379,0.667,0.627,�k��,9.7,��
2021/02/26,14:50,0.659,0.961,0.608,1.209,0.854,0.378,0.667,0.627,�k��,10.0,��
2021/02/26,15:00,0.661,0.964,0.607,1.208,0.855,0.378,0.668,0.627,�k�k��,8.9,��
2021/02/26,15:10,0.658,0.963,0.609,1.209,0.853,0.378,0.667,0.628,�k�k��,8.6,��
2021/02/26,15:20,0.659,0.965,0.607,1.211,0.855,0.379,0.667,0.627,�k�k��,7.4,��
2021/02/26,15:30,0.659,0.962,0.606,1.211,0.854,0.378,0.669,0.628,�k�k��,7.2,��
2021/02/26,15:40,0.659,0.964,0.608,1.209,0.854,0.380,0.669,0.627,�k�k��,5.8,��
2021/02/26,15:50,0.659,0.964,0.606,1.209,0.854,0.378,0.669,0.627,�k�k��,7.1,��
2021/02/26,16:00,0.658,0.964,0.605,1.210,0.853,0.378,0.668,0.626,�k�k��,6.0,��
2021/02/26,16:10,0.660,0.964,0.607,1.210,0.856,0.377,0.668,0.627,�k�k��,6.1,��
2021/02/26,16:20,0.659,0.965,0.607,1.208,0.855,0.379,0.669,0.627,�k�k��,7.0,��
2021/02/26,16:30,0.660,0.964,0.605,1.209,0.854,0.379,0.669,0.626,�k�k��,7.0,��
2021/02/26,16:40,0.658,0.962,0.607,1.211,0.856,0.380,0.669,0.627,�k�k��,6.8,��
2021/02/26,16:50,0.659,0.965,0.606,1.210,0.853,0.377,0.669,0.626,�k�k��,6.8,��
2021/02/26,17:00,0.659,0.964,0.605,1.209,0.857,0.379,0.671,0.626,�k,6.6,��
2021/02/26,17:10,0.658,0.964,0.606,1.210,0.854,0.379,0.669,0.627,�k�k��,6.6,��
2021/02/26,17:20,0.659,0.964,0.607,1.209,0.854,0.380,0.670,0.627,�k�k��,6.0,��
2021/02/26,17:30,0.658,0.964,0.606,1.210,0.854,0.379,0.669,0.626,�k�k��,6.1,��
2021/02/26,17:40,0.658,0.965,0.607,1.209,0.855,0.379,0.671,0.627,�k,4.9,��
2021/02/26,17:50,0.657,0.963,0.606,1.209,0.855,0.379,0.670,0.626,�k�k��,4.6,��
2021/02/26,18:00,0.658,0.962,0.605,1.207,0.856,0.377,0.671,0.628,�k�k��,4.1,��
2021/02/26,18:10,0.655,0.963,0.607,1.208,0.856,0.378,0.669,0.627,�k��,4.3,��
2021/02/26,18:20,0.657,0.965,0.607,1.209,0.854,0.379,0.669,0.626,�k��,4.6,��
2021/02/26,18:30,0.659,0.964,0.605,1.208,0.854,0.380,0.668,0.626,�k�k��,3.8,��
2021/02/26,18:40,0.658,0.963,0.605,1.208,0.854,0.379,0.669,0.626,�k�k��,3.7,��
2021/02/26,18:50,0.658,0.964,0.604,1.208,0.854,0.377,0.669,0.625,�k��,4.0,��
2021/02/26,19:00,0.657,0.962,0.605,1.211,0.855,0.377,0.669,0.626,�k�k��,3.6,��
2021/02/26,19:10,0.657,0.963,0.605,1.210,0.855,0.378,0.670,0.625,�k�k��,2.6,��
2021/02/26,19:20,0.658,0.963,0.605,1.209,0.853,0.378,0.670,0.627,�k�k��,3.0,��
2021/02/26,19:30,0.659,0.963,0.605,1.209,0.855,0.378,0.668,0.625,�k�k��,3.3,��
2021/02/26,19:40,0.658,0.963,0.606,1.207,0.854,0.378,0.669,0.627,�k�k��,4.2,��
2021/02/26,19:50,0.657,0.963,0.605,1.206,0.856,0.379,0.670,0.626,�k�k��,4.9,��
2021/02/26,20:00,0.658,0.961,0.604,1.210,0.853,0.378,0.668,0.627,�k�k��,5.4,��
2021/02/26,20:10,0.659,0.964,0.606,1.211,0.853,0.378,0.669,0.625,�k�k��,6.0,��
2021/02/26,20:20,0.655,0.965,0.604,1.208,0.857,0.379,0.671,0.625,�k�k��,5.7,��
2021/02/26,20:30,0.657,0.964,0.604,1.208,0.854,0.379,0.669,0.626,�k�k��,7.2,��
2021/02/26,20:40,0.658,0.961,0.607,1.210,0.852,0.378,0.669,0.628,�k�k��,6.6,��
2021/02/26,20:50,0.657,0.963,0.604,1.207,0.854,0.377,0.669,0.626,�k�k��,6.4,��
2021/02/26,21:00,0.657,0.963,0.605,1.208,0.853,0.378,0.668,0.628,�k�k��,6.1,��
2021/02/26,21:10,0.657,0.962,0.606,1.210,0.856,0.378,0.668,0.626,�k�k��,5.0,��
2021/02/26,21:20,0.656,0.959,0.607,1.209,0.854,0.378,0.669,0.626,�k�k��,5.8,��
2021/02/26,21:30,0.656,0.963,0.605,1.208,0.854,0.378,0.669,0.626,�k,5.7,��
2021/02/26,21:40,0.656,0.964,0.604,1.210,0.855,0.378,0.669,0.626,�k,5.1,��
2021/02/26,21:50,0.658,0.962,0.605,1.209,0.853,0.377,0.669,0.626,�k,4.9,��
2021/02/26,22:00,0.657,0.961,0.606,1.208,0.854,0.378,0.670,0.627,�k�k��,2.8,��
2021/02/26,22:10,0.655,0.961,0.605,1.208,0.852,0.377,0.668,0.626,�k�k��,3.8,��
2021/02/26,22:20,0.656,0.962,0.605,1.208,0.853,0.378,0.668,0.624,�k��,3.4,��
2021/02/26,22:30,0.657,0.963,0.603,1.207,0.854,0.378,0.668,0.627,�k��,4.2,��
2021/02/26,22:40,0.656,0.962,0.605,1.207,0.856,0.377,0.669,0.626,�k��,4.5,��
2021/02/26,22:50,0.656,0.963,0.606,1.206,0.852,0.376,0.668,0.626,�k��,3.5,��
2021/02/26,23:00,0.656,0.964,0.604,1.208,0.853,0.377,0.668,0.626,�k��,3.4,��
2021/02/26,23:10,0.657,0.962,0.604,1.207,0.853,0.377,0.667,0.626,�k��,3.7,��
2021/02/26,23:20,0.657,0.963,0.605,1.208,0.852,0.377,0.667,0.626,���k��,4.6,��
2021/02/26,23:30,0.655,0.962,0.604,1.209,0.855,0.377,0.668,0.626,�k��,4.8,��
2021/02/26,23:40,0.656,0.962,0.605,1.208,0.854,0.377,0.669,0.627,�k��,4.4,��
2021/02/26,23:50,0.657,0.961,0.606,1.208,0.854,0.378,0.668,0.627,�k��,3.6,��
